User: anonymous   Login
Location: Buckeye Ditch
(40.9104°N, 122.9517°W)
Time: 02:59:52
(UTC+00:00)
Language:

Cosmos 2278 Rocket - Orbit

View from above orbital plane
View from above orbital plane
View from above satellite
View from above satellite

Ground track
Ground track

The orbit data is extracted from the following two-line orbital elements,

1 23088U 94023B   24201.84848614 -.00000079  00000-0 -16335-4 0  9991
2 23088  70.9987 246.2857 0001802 174.0548 186.0596 14.14859713561524
Epoch (UTC): 19 July 2024 20:21:49
Eccentricity: 0.0001802
inclination: 70.9987°
perigee height: 841 km
apogee height: 844 km
right ascension of ascending node: 246.2857°
argument of perigee: 174.0548°
revolutions per day: 14.14859713
mean anomaly at epoch: 186.0596°
orbit number at epoch: 56152

The dashed part of the orbit path shows where the satellite is in the earth's shadow,  

DLR